Meteo Giornale » Osservazioni meteo Austria » Vienna-Schwechat

ore: 19:50 - Osservazioni Meteo Vienna-Schwechat
Lat. 48° 7' N Lon. 16° 34' E Alt. 183 metri s.l.m.

sereno Europe/Vienna

20 °C

Sereno

Temp. 24 Ore

16 °C

22 °C

Ovest

35.2 Km/h

Dew point 10 °C

Umidità 52 %

Visibilità  10 Km

Il sole sorge alle ore 05:19

Il sole tramonta alle ore 20:40

Data e Ora Cielo e Fenomeni T °C DP °C Um. % Pres. hPa Vis. km Vento km/h
Oggi h: 19:50 sereno Sereno 20 10 52 1005 10 O 35.2
Oggi h: 19:20 sereno Sereno 20 9 49 1005 10 O 42.6
Oggi h: 18:50 sereno Sereno 21 9 46 1005 10 O 35.2
Oggi h: 18:20 sereno Sereno 22 9 43 1005 10 O 33.3
Oggi h: 17:50 nuvoloso Nuvoloso 22 9 43 1005 10 O 35.2
Oggi h: 17:20 nuvoloso Nuvoloso 22 9 43 1005 10 O 33.3
Oggi h: 16:50 nuvoloso Nuvoloso 22 10 46 1005 10 O 33.3
Oggi h: 16:20 molto_nuvoloso Molto Nuvoloso 22 10 46 1005 10 O 33.3
Oggi h: 15:50 molto_nuvoloso Molto Nuvoloso 22 10 46 1006 10 O/NO 33.3
Oggi h: 15:20 molto_nuvoloso Molto Nuvoloso 22 9 43 1006 10 O 37
Oggi h: 14:50 molto_nuvoloso Molto Nuvoloso 22 10 46 1006 10 O/NO 33.3
Oggi h: 14:20 molto_nuvoloso Molto Nuvoloso 21 9 46 1006 10 O 35.2
Oggi h: 13:50 molto_nuvoloso Molto Nuvoloso 21 10 49 1006 10 O 35.2
Oggi h: 13:20 molto_nuvoloso Molto Nuvoloso 21 10 49 1006 10 O 29.6
Oggi h: 12:50 molto_nuvoloso Molto Nuvoloso 21 10 49 1006 10 O 29.6
Oggi h: 12:20 molto_nuvoloso Molto Nuvoloso 21 9 46 1006 10 O/NO 27.8
Oggi h: 11:50 molto_nuvoloso Molto Nuvoloso 20 10 52 1006 10 O/NO 25.9
Oggi h: 11:20 molto_nuvoloso Molto Nuvoloso 20 10 52 1006 10 O/NO 37
Oggi h: 10:50 molto_nuvoloso Molto Nuvoloso 20 10 52 1006 10 O/NO 33.3
Oggi h: 10:20 molto_nuvoloso Molto Nuvoloso 19 10 55 1006 10 O 35.2
Oggi h: 09:50 molto_nuvoloso Molto Nuvoloso 19 10 55 1006 10 O/NO 33.3
Oggi h: 09:20 molto_nuvoloso Molto Nuvoloso 19 10 55 1005 10 O/NO 35.2
Oggi h: 08:50 molto_nuvoloso Molto Nuvoloso 18 10 59 1005 10 O/NO 35.2
Oggi h: 08:20 molto_nuvoloso Molto Nuvoloso 18 10 59 1006 10 O/NO 31.5
Oggi h: 07:50 molto_nuvoloso Molto Nuvoloso 17 10 63 1006 10 O 37
Oggi h: 07:20 molto_nuvoloso Molto Nuvoloso 17 10 63 1006 10 O 31.5
Oggi h: 06:20 molto_nuvoloso Molto Nuvoloso 16 10 67 1006 10 O 37
Oggi h: 05:50 molto_nuvoloso Molto Nuvoloso 16 10 67 1005 10 O 33.3
Oggi h: 05:20 molto_nuvoloso Molto Nuvoloso 16 11 72 1005 10 O/NO 31.5
Oggi h: 04:50 sereno Sereno 16 11 72 1005 10 O/NO 31.5
Oggi h: 04:20 sereno Sereno 17 11 67 1005 10 O/NO 31.5
Oggi h: 03:50 sereno Sereno 17 12 72 1006 10 O/NO 25.9
Oggi h: 03:20 nuvoloso_piovaschi Debole Rovescio di Pioggia 17 12 72 1006 10 O/NO 24
Oggi h: 02:50 sereno Sereno 17 12 72 1006 10 O/NO 22.2
Oggi h: 02:20 nuvoloso_piovaschi Debole Rovescio di Pioggia 17 12 72 1006 10 O 27.8
Oggi h: 01:50 molto_nuvoloso Molto Nuvoloso 17 12 72 1006 10 O 31.5
Oggi h: 01:20 molto_nuvoloso Molto Nuvoloso 17 12 72 1006 10 O 31.5
Oggi h: 00:50 nuvoloso_piovaschi Debole Rovescio di Pioggia 17 12 72 1006 10 O 33.3
Oggi h: 00:20 sereno Sereno 17 13 77 1006 10 O/NO 31.5
Ieri h: 23:50 molto_nuvoloso Molto Nuvoloso 17 12 72 1006 10 O/NO 33.3
Ieri h: 23:20 coperto_pioggia Pioggia Debole 17 13 77 1006 10 O 40.7
Ieri h: 22:50 molto_nuvoloso Molto Nuvoloso 18 12 67 1005 10 O/NO 35.2
Ieri h: 22:20 molto_nuvoloso Molto Nuvoloso 19 13 68 1005 10 O/NO 35.2
Ieri h: 21:50 molto_nuvoloso Molto Nuvoloso 19 14 72 1005 10 O/NO 35.2
Ieri h: 21:20 molto_nuvoloso Molto Nuvoloso 19 14 72 1005 10 O 27.8
Ieri h: 20:50 molto_nuvoloso Molto Nuvoloso 19 15 77 1005 10 O 27.8